EHI
0 0 0 0 0 0 0 0 0 0 0 0 0 0 0 0 0 0 0 0 0 0 0 0 0 0 0 0 0 0 0 0 0 0 0 0 0 0 0 0 0 0 0 0 0 0 0 0 0
0 0 0 0 0 0 0 0 0 0 0 0 0 0 0 0 0 0 0 0 0 0 0 0 0 0 0 0 0 0 0 0 0 0 0 0 0 0 0 0 0 0 0 0 0 0 0 0 0
0 0 0 0 0 0 0 0 0 0 0 0 0 0 0 0 0 0 0 0 0 0 0 0 0 0 0 0 0 0 0 0 0 0 0 0 0 0 0 0 0 0 0 0 0 0 0 0 0
0 0 0 0 0 0 0 0 0 0 0 0 0 0 0 0 0 0 0 0 0 0 0 1 3 3 2 0 0 0 0 0 0 0 0 0 0 0 0 0 0 0 0 0 0 0 0 0 0
0 0 0 0 0 0 0 0 0 0 0 0 0 0 0 0 0 0 0 0 0 0 0 2 7 7 5 3 1 0 0 0 0 0 0 0 0 0 0 0 0 0 0 0 0 0 0 0 0
0 0 0 0 0 0 0 0 0 0 0 0 0 0 0 0 0 0 0 0 0 0 0 1 4 6 6 7 7 7 5 3 2 1 0 0 0 0 0 0 0 0 0 0 0 0 0 0 0
0 0 0 0 0 0 0 0 0 0 0 0 0 0 0 0 0 0 0 0 0 0 0 0 0 1 3 6 11 13 10 8 6 4 2 0 0 0 0 0 0 0 0 0 0 0 0 0 0
0 0 0 0 0 0 0 0 0 0 0 0 0 0 0 0 0 0 0 0 0 0 0 0 0 0 0 2 5 7 7 6 6 5 3 1 0 0 0 0 0 0 0 0 0 0 0 0 0
0 0 0 0 0 0 0 0 0 0 0 0 0 0 0 0 0 0 0 0 0 0 0 0 0 0 0 0 0 1 1 2 2 2 1 0 0 0 0 0 0 0 0 0 0 0 0 0 0
0 0 0 0 0 0 0 0 0 0 0 0 0 0 0 0 0 0 0 0 0 0 0 0 0 0 0 0 0 0 0 0 0 0 0 0 0 0 0 0 0 0 0 0 0 0 0 0 0
0 0 0 0 0 0 0 0 0 0 0 0 0 0 0 0 0 0 0 0 0 0 0 0 0 0 0 0 0 0 0 0 0 0 0 0 0 0 0 0 0 0 0 0 0 0 0 0 0
0 0 0 0 0 0 0 0 0 0 0 0 0 0 0 0 0 0 0 0 0 0 0 0 0 0 0 0 0 0 0 0 0 0 0 0 0 0 0 0 0 0 0 0 0 0 0 0 0
0 0 0 0 0 0 0 0 0 0 0 0 0 0 0 0 0 0 0 0 0 0 0 0 0 0 0 0 0 0 0 0 0 0 0 0 0 0 0 0 0 0 0 0 0 0 0 0 0
0 0 0 0 0 0 0 0 0 0 0 0 0 0 0 0 0 0 0 0 0 0 0 0 0 0 0 0 0 0 0 0 0 0 0 0 0 0 0 0 0 0 0 0 0 0 0 0 0
0 0 0 0 0 0 0 0 0 0 0 0 0 0 0 0 0 0 0 0 0 0 0 0 0 0 0 0 0 0 0 0 0 0 0 0 0 0 0 0 0 0 0 0 0 0 0 0 0
0 0 0 0 0 0 0 0 0 0 0 0 0 0 0 0 0 0 0 0 0 0 0 0 0 0 0 0 0 0 0 0 0 0 0 0 0 0 0 0 0 0 0 0 0 0 0 0 0
0 0 0 0 0 0 0 0 0 0 0 0 0 0 0 0 0 0 0 0 0 0 0 0 0 0 0 0 0 0 0 0 0 0 0 0 0 0 0 0 0 0 0 0 0 0 0 0 0
0 0 0 0 0 0 0 0 0 0 0 0 0 0 0 0 0 0 0 0 0 0 0 0 0 0 0 0 0 0 0 0 0 0 0 0 0 0 0 0 0 0 0 0 0 0 0 0 0
0 0 0 0 0 0 0 0 0 0 0 0 0 0 0 0 0 0 0 0 0 0 0 0 0 0 0 0 0 0 0 0 0 0 0 0 0 0 0 0 0 0 0 0 0 0 0 0 0
0 0 0 0 0 0 0 0 0 0 0 0 0 0 0 0 0 0 0 0 0 0 0 0 0 0 0 0 0 0 0 0 0 0 0 0 0 0 0 0 0 0 0 0 0 0 0 0 0
0 0 0 0 0 0 0 0 0 0 0 0 0 0 0 0 0 0 0 0 0 0 0 0 0 0 0 0 0 0 0 0 0 0 0 0 0 0 0 0 0 0 0 0 0 0 0 0 0
0 0 0 0 0 0 0 0 0 0 0 0 0 0 0 0 0 0 0 0 0 0 0 0 0 0 0 0 0 0 0 0 0 0 0 0 0 0 0 0 0 0 0 0 0 0 0 0 0
0 0 0 0 0 0 0 0 0 0 0 0 0 0 0 0 0 0 0 0 0 0 0 0 0 0 0 0 0 0 0 0 0 0 0 0 0 0 0 0 0 0 0 0 0 0 0 0 0
0 0 0 0 0 0 0 0 0 0 0 0 0 0 0 0 0 0 0 0 0 0 0 0 0 0 0 0 0 0 0 0 0 0 0 0 0 0 0 0 0 0 0 0 0 0 0 0 0
0 0 0 0 0 0 0 0 0 0 0 0 0 0 0 0 0 0 0 0 0 0 0 0 0 0 0 0 0 0 0 0 0 0 0 0 0 0 0 0 0 0 0 0 0 0 0 0 0
0 0 0 0 0 0 0 0 0 0 0 0 0 0 0 0 0 0 0 0 0 0 0 0 0 0 0 0 0 0 0 0 0 0 0 0 0 0 0 0 0 0 0 0 0 0 0 0 0
0 0 0 0 0 0 0 0 0 0 0 0 0 0 0 0 0 0 0 0 0 0 0 0 0 0 0 0 0 0 0 0 0 0 0 0 0 0 0 0 0 0 0 0 0 0 0 0 0
0 0 0 0 0 0 0 0 0 0 0 0 0 0 0 0 0 0 0 0 0 0 0 0 0 0 0 0 0 0 0 0 0 0 0 0 0 0 0 0 0 0 0 0 0 0 0 0 0
0 0 0 0 0 0 0 0 0 0 0 0 0 0 0 0 0 0 0 0 0 0 0 0 0 0 0 0 0 0 0 0 0 0 0 0 0 0 0 0 0 0 0 0 0 0 0 0 0
0 0 0 0 0 0 0 0 0 0 0 0 0 0 0 0 0 0 0 0 0 0 0 0 0 0 0 0 0 0 0 0 0 0 0 0 0 0 0 0 0 0 0 0 0 0 0 0 0
Wind_Speed
8 4 2 4 7 7 5 5 3 6 5 3 2 6 7 6 5 4 3 3 2 3 3 4 7 6 6 5 4 3 2 2 2 2 3 3 3 3 4 4 4 5 5 5 5 4 3 3 2
3 2 5 6 8 6 5 7 8 6 5 3 3 6 8 8 6 5 7 6 4 4 2 1 4 5 5 5 5 4 4 3 3 3 4 5 5 6 5 5 6 6 7 7 6 5 4 3 3
3 4 6 7 6 4 4 7 6 7 4 4 5 7 7 8 11 11 11 5 7 6 4 2 2 3 4 5 5 5 5 5 5 5 6 7 8 7 5 4 5 6 7 7 7 6 5 4 4
4 6 7 9 8 3 2 5 6 6 8 10 5 8 7 9 13 11 11 9 10 8 7 6 4 4 4 5 6 6 6 6 6 7 7 8 9 8 5 4 5 6 6 7 7 6 6 5 4
5 6 9 7 6 5 4 6 7 7 8 10 7 7 6 12 15 15 16 16 14 12 11 12 13 9 7 6 6 6 6 7 7 8 8 9 10 9 7 5 4 5 5 6 6 6 6 5 5
6 6 8 5 4 5 5 6 5 8 8 10 11 5 6 13 23 19 18 18 18 17 16 16 21 20 16 11 9 8 7 8 8 9 9 9 10 9 9 7 5 5 5 6 6 6 6 6 6
6 7 5 4 3 6 8 5 7 6 11 12 11 6 6 19 21 14 15 19 21 21 20 18 17 18 20 19 16 12 10 10 10 10 10 10 10 10 9 7 6 6 7 8 8 7 6 6 6
5 7 5 3 4 5 7 5 8 13 10 8 10 11 9 15 16 11 17 22 22 22 21 20 19 18 16 14 21 22 19 18 15 12 10 10 9 9 8 6 7 7 8 9 10 9 8 6 6
5 8 4 2 2 3 7 7 8 9 9 12 11 9 7 10 10 20 24 24 23 23 20 19 19 19 17 15 19 20 21 22 20 15 16 11 5 5 5 6 8 10 11 11 11 11 9 7 6
7 5 2 1 2 5 9 10 7 10 14 12 11 13 10 10 19 25 24 23 22 21 19 17 18 18 17 15 13 11 12 13 13 13 14 9 7 5 6 7 9 10 10 12 13 13 10 7 3
5 4 2 4 4 6 8 11 13 8 15 9 9 10 11 18 22 21 18 13 13 11 16 17 16 15 16 12 11 9 8 9 11 15 15 11 9 7 6 4 5 5 6 5 7 7 4 3 3
5 5 5 5 7 8 8 7 13 17 8 5 5 6 12 19 18 16 15 14 13 15 18 16 15 15 14 11 9 9 9 9 10 11 14 11 8 9 8 5 5 4 3 4 4 3 4 4 5
6 6 11 17 24 20 21 16 14 11 7 5 7 13 16 16 13 11 11 13 16 18 19 17 16 17 15 11 10 10 9 9 9 9 11 12 9 9 9 7 6 6 4 4 4 4 5 5 5
4 8 8 8 11 9 18 12 9 7 5 7 12 15 13 14 14 15 18 19 19 18 18 17 16 16 15 13 10 8 8 8 8 8 10 11 9 9 9 9 8 6 6 5 5 5 5 4 4
5 8 8 5 6 6 13 14 8 4 6 11 12 12 13 13 15 15 14 14 14 15 16 17 16 16 15 13 12 9 8 8 7 8 9 10 10 10 10 9 9 8 8 7 5 6 4 4 4
5 6 5 4 4 4 12 9 4 5 8 12 11 10 11 12 12 11 12 12 12 13 15 16 16 16 15 13 11 9 8 8 7 7 8 10 11 11 9 9 8 9 8 7 6 5 4 5 5
8 4 3 3 8 6 10 8 4 7 9 11 10 10 10 12 12 11 11 11 12 12 14 15 15 15 15 13 10 9 8 8 8 8 8 11 12 12 9 8 8 10 8 7 7 6 4 5 5
2 2 2 3 5 9 11 10 7 7 10 9 9 10 11 13 11 10 11 12 12 12 13 13 15 15 14 11 9 8 8 7 7 7 9 13 12 13 11 8 10 10 9 8 7 8 7 5 5
1 2 3 3 4 8 12 11 7 6 8 10 9 10 11 10 9 10 11 13 14 16 17 16 16 15 13 12 12 12 11 10 9 8 12 13 14 14 12 10 10 10 9 9 10 8 9 6 4
3 4 3 4 5 8 10 9 7 6 6 5 6 8 9 10 12 12 13 13 14 14 15 15 15 15 14 12 11 10 10 9 9 9 11 12 14 14 12 12 11 10 10 11 10 9 7 5 4
4 3 1 3 5 6 8 5 4 3 4 5 6 6 7 10 10 10 11 12 13 15 16 16 16 16 14 14 10 11 9 9 10 12 10 12 14 13 12 12 11 11 9 10 11 10 9 8 6
3 1 1 4 6 5 6 4 4 2 5 7 8 8 9 9 8 9 11 13 14 14 14 15 16 16 15 14 14 16 13 13 14 12 11 14 14 13 12 12 11 11 10 11 12 11 9 9 8
4 3 1 2 5 4 2 3 2 2 4 6 7 8 9 8 8 9 10 11 13 14 14 14 16 16 16 16 16 15 14 12 12 13 14 13 11 11 12 12 11 11 11 12 12 13 11 8 8
3 3 3 4 4 2 0 4 1 1 1 4 6 8 9 9 8 8 9 10 12 13 13 15 16 16 17 17 17 16 17 17 18 18 16 14 12 11 12 15 12 12 11 12 12 12 13 10 9
9 7 7 8 4 2 3 4 3 3 2 1 5 9 9 8 7 9 11 12 13 14 15 15 17 17 17 17 17 17 17 18 17 17 16 16 13 14 16 17 15 14 13 13 13 12 12 11 10
4 5 5 2 5 5 2 2 4 4 2 3 5 7 8 8 7 8 9 10 11 14 15 16 17 17 17 17 17 16 16 13 13 16 15 15 13 14 18 19 18 17 16 15 12 11 11 9 9
2 3 2 4 2 5 2 1 2 1 4 6 7 8 8 7 7 8 8 9 10 12 14 15 16 17 17 17 17 15 15 15 15 16 15 13 14 15 18 19 19 18 17 15 13 9 10 8 7
4 5 4 3 3 7 5 4 3 2 7 8 9 9 8 7 7 8 8 10 10 11 12 13 15 15 15 16 15 15 15 15 15 15 16 16 17 17 18 19 19 19 18 16 13 10 9 8 6
3 4 5 3 3 3 7 4 5 3 5 8 9 9 7 7 8 8 8 9 10 10 11 12 14 15 15 15 15 15 15 15 15 14 16 16 16 17 18 18 19 19 18 17 15 13 11 8 5
3 3 4 2 3 3 4 6 4 3 4 6 9 8 6 6 7 7 8 9 10 11 12 13 14 14 15 15 15 15 15 15 15 15 16 16 16 16 17 17 17 18 18 17 17 16 13 9 6
Wind_Direction
341 358 53 53 52 52 44 353 331 336 352 359 53 99 92 74 76 84 317 27 79 115 160 187 178 186 191 197 205 212 228 273 333 350 342 329 310 299 284 270 270 263 257 251 247 244 239 227 211
333 4 48 56 71 59 8 340 350 340 322 319 59 64 55 32 18 9 350 355 53 88 95 68 191 197 206 214 220 224 231 247 273 297 307 307 301 294 285 274 273 273 266 261 255 251 252 244 227
10 49 71 64 63 71 1 332 321 311 348 33 62 53 53 13 352 345 328 1 55 60 47 19 230 225 233 237 239 239 240 245 254 266 278 287 296 292 297 300 294 292 278 263 259 255 251 246 231
52 42 53 67 66 29 339 312 318 345 15 18 47 58 65 36 346 330 342 29 43 33 22 3 321 289 272 266 261 256 255 256 259 264 271 281 295 290 285 303 313 315 297 264 252 255 258 253 239
56 69 60 57 50 357 346 339 347 29 25 4 30 76 50 4 354 6 19 33 35 28 19 10 359 345 322 296 281 271 266 265 268 271 273 278 290 296 286 265 275 302 307 289 266 259 262 264 257
51 62 74 65 32 345 357 348 15 34 19 13 11 65 72 357 6 7 20 33 34 30 24 17 10 6 358 341 319 297 284 277 276 279 277 279 281 290 292 272 256 265 284 289 279 268 266 269 272
81 74 80 87 41 18 356 9 33 29 35 10 349 39 14 359 357 358 23 34 33 29 25 18 12 8 5 4 356 342 327 312 298 290 285 284 285 286 294 289 274 274 280 283 278 271 264 262 270
102 88 64 53 57 23 353 40 49 37 40 10 23 36 4 337 338 4 34 35 32 29 25 17 13 11 7 8 12 11 8 359 344 326 310 296 287 284 288 289 280 278 281 280 273 266 259 257 259
75 71 67 59 80 37 16 50 49 46 55 46 45 39 354 329 360 35 34 31 28 26 23 18 16 13 9 11 13 13 12 8 4 355 345 329 307 290 286 280 277 276 277 275 270 263 256 252 252
65 86 74 38 89 88 53 46 41 59 45 34 29 24 12 22 38 41 35 29 24 19 19 19 17 15 13 13 11 8 8 4 6 3 358 349 337 323 310 290 284 282 283 282 273 262 257 253 245
67 102 57 41 66 84 83 58 31 77 48 22 18 12 20 39 42 40 36 28 19 12 17 17 17 15 16 12 11 9 4 3 3 5 2 355 352 347 339 323 309 302 294 285 278 274 255 242 233
69 44 38 26 46 61 62 76 60 55 70 31 31 32 39 42 37 32 28 22 15 17 15 10 12 13 12 10 10 12 7 5 4 1 2 2 357 353 345 335 321 310 298 287 274 260 253 247 241
56 60 64 79 79 85 85 79 82 57 49 40 48 45 40 38 31 25 26 24 19 16 10 5 6 8 5 5 5 10 6 4 360 0 2 3 358 351 344 336 328 315 305 291 280 266 257 250 246
65 81 98 85 86 77 82 73 76 47 24 41 45 42 35 32 25 25 23 21 17 12 7 1 4 4 359 359 357 357 357 355 357 0 359 1 358 351 344 337 331 324 315 299 282 270 261 253 244
102 96 80 71 98 137 91 57 57 48 41 47 38 33 33 30 28 26 20 18 12 8 4 2 1 -0 356 352 350 350 347 348 352 353 353 356 355 350 345 336 332 329 321 308 292 276 261 254 246
64 69 70 31 57 89 88 91 59 41 56 50 33 26 29 26 25 22 20 16 10 6 2 359 358 355 352 349 345 343 342 344 344 344 346 351 350 348 343 335 328 324 321 312 298 281 266 253 243
34 60 69 35 27 56 86 114 71 41 58 51 31 24 23 21 18 15 15 11 5 2 357 354 354 354 350 346 343 339 338 340 339 340 344 345 344 344 340 329 324 324 320 313 304 292 263 256 249
360 43 48 44 31 61 88 100 72 46 58 49 30 22 20 17 6 0 5 4 1 359 356 354 354 354 350 347 342 339 338 338 335 337 341 341 339 340 336 327 327 326 321 317 312 299 282 257 249
162 114 86 58 59 78 95 97 75 51 50 41 29 19 10 2 350 359 4 3 1 0 358 355 354 353 353 352 348 343 340 338 335 337 339 336 336 335 332 330 327 326 320 312 307 300 289 271 244
96 101 92 92 73 95 102 89 68 49 50 43 28 13 358 353 355 357 359 359 357 354 353 353 352 350 353 350 345 338 333 332 333 334 331 332 332 330 330 330 325 322 319 314 310 305 290 277 233
44 103 143 139 75 87 113 99 91 47 47 38 20 2 356 359 350 349 354 355 353 354 352 350 348 348 350 350 348 343 339 338 340 337 333 332 329 325 323 323 322 318 316 311 308 300 288 280 265
330 343 273 175 146 177 154 163 175 121 36 17 0 353 349 346 346 350 354 354 353 350 348 347 347 347 350 351 351 348 347 341 336 331 325 324 322 320 322 321 319 316 313 309 306 301 288 277 270
276 311 244 163 151 116 133 143 203 57 25 356 343 340 335 336 344 349 353 351 350 350 348 346 346 348 351 351 351 346 342 337 332 330 326 324 320 319 321 320 318 316 312 307 305 301 289 275 264
315 24 90 67 92 137 216 174 231 10 28 326 331 331 330 333 343 346 349 353 351 349 350 350 347 347 349 349 348 344 342 339 336 336 334 332 329 327 326 325 321 315 310 306 304 299 289 277 266
26 44 19 3 -0 290 77 103 190 185 183 315 326 324 325 331 345 348 351 354 352 352 353 349 347 347 349 348 347 343 343 339 336 334 332 332 331 333 332 332 325 319 311 305 301 296 287 278 268
26 76 101 285 280 295 39 160 215 192 220 296 308 309 318 332 345 345 349 351 351 352 353 350 348 347 347 347 345 342 344 339 334 332 330 330 331 331 332 330 324 319 313 307 302 296 287 279 267
78 80 138 156 284 281 265 198 245 239 314 310 309 314 323 332 340 341 349 353 353 355 354 348 346 346 346 345 341 341 342 339 335 332 331 331 331 331 333 331 328 324 319 312 305 297 292 283 270
91 129 82 77 333 302 291 222 213 282 304 309 316 321 326 337 341 346 354 356 356 354 349 345 345 344 342 341 341 341 339 338 336 334 335 335 334 335 335 337 335 334 331 328 318 306 299 287 281
40 62 87 102 158 233 291 274 172 217 286 304 307 312 326 338 343 349 354 355 351 350 348 344 346 344 342 341 339 338 338 338 337 336 335 335 334 335 338 339 340 341 343 343 337 328 317 303 295
99 105 121 135 250 203 236 266 167 194 283 295 301 311 327 335 339 347 350 351 349 348 347 345 345 344 341 339 338 337 338 339 339 337 335 335 335 336 337 340 342 344 346 350 348 344 340 334 323